When you browse on this site, cookies collect data to enhance your experience and personalize the content and advertising you see.
Visit our Privacy Policy to learn more. By continuing to use the site, you agree to this use of cookies and data.
  • In Germany
  • List of Countries
  • For 7 days
  • Water Temperature
  • Weather Map
  • Weather Widgets
  • user-avatar
    Login

    Hourly Weather Megri

    Today, 19 September, Thursday

    Time Temperature Precipitation Wind Pressure Humidity
    00:00 +15°C° 0 mm 0 mps 625 mmHg 53%
    01:00 +15°C° 0 mm 0 mps 624 mmHg 52%
    02:00 +14°C° 0 mm 0 mps 624 mmHg 51%
    03:00 +14°C° 0 mm 0 mps 624 mmHg 49%
    04:00 +14°C° 0 mm 0 mps 624 mmHg 49%
    05:00 +13°C° 0 mm 0 mps 624 mmHg 49%
    06:00 +13°C° 0 mm 0 mps 624 mmHg 49%
    07:00 +16°C° 0 mm 0 mps 625 mmHg 42%
    08:00 +18°C° 0 mm 0 mps 626 mmHg 34%
    09:00 +23°C° 0 mm 1 mps 627 mmHg 27%
    10:00 +24°C° 0 mm 1 mps 627 mmHg 24%
    11:00 +25°C° 0 mm 1 mps 628 mmHg 22%
    12:00 +27°C° 0 mm 2 mps 628 mmHg 19%
    13:00 +27°C° 0 mm 2 mps 628 mmHg 18%
    14:00 +27°C° 0 mm 2 mps 628 mmHg 18%
    15:00 +28°C° 0 mm 2 mps 627 mmHg 17%
    16:00 +26°C° 0 mm 2 mps 627 mmHg 23%
    17:00 +24°C° 0 mm 2 mps 626 mmHg 28%
    18:00 +23°C° 0 mm 2 mps 626 mmHg 34%
    19:00 +20°C° 0 mm 2 mps 626 mmHg 39%
    20:00 +19°C° 0 mm 2 mps 626 mmHg 43%
    21:00 +18°C° 0 mm 2 mps 625 mmHg 47%
    22:00 +18°C° 0 mm 2 mps 625 mmHg 48%
    23:00 +17°C° 0 mm 2 mps 625 mmHg 49%

    Tomorrow, 20 September, Friday

    Time Temperature Precipitation Wind Pressure Humidity
    00:00 +17°C° 0 mm 2 mps 625 mmHg 49%
    01:00 +16°C° 0 mm 2 mps 624 mmHg 50%
    02:00 +16°C° 0 mm 2 mps 624 mmHg 51%
    03:00 +15°C° 0 mm 2 mps 623 mmHg 52%
    04:00 +15°C° 0 mm 1 mps 623 mmHg 53%
    05:00 +15°C° 0 mm 1 mps 623 mmHg 53%
    06:00 +14°C° 0 mm 1 mps 623 mmHg 54%
    07:00 +18°C° 0 mm 1 mps 624 mmHg 46%
    08:00 +20°C° 0 mm 1 mps 625 mmHg 37%
    09:00 +23°C° 0 mm 1 mps 626 mmHg 29%
    10:00 +24°C° 0 mm 2 mps 626 mmHg 26%
    11:00 +26°C° 0 mm 3 mps 626 mmHg 22%
    12:00 +27°C° 0 mm 3 mps 626 mmHg 19%
    13:00 +28°C° 0 mm 3 mps 625 mmHg 17%
    14:00 +28°C° 0 mm 3 mps 625 mmHg 15%
    15:00 +29°C° 0 mm 3 mps 624 mmHg 13%
    16:00 +27°C° 0 mm 2 mps 624 mmHg 18%
    17:00 +25°C° 0 mm 2 mps 623 mmHg 22%
    18:00 +23°C° 0 mm 1 mps 622 mmHg 27%
    19:00 +22°C° 0 mm 1 mps 622 mmHg 27%
    20:00 +22°C° 0 mm 1 mps 622 mmHg 27%
    21:00 +21°C° 0 mm 1 mps 622 mmHg 26%
    22:00 +20°C° 0 mm 2 mps 622 mmHg 25%
    23:00 +19°C° 0 mm 2 mps 622 mmHg 24%

    Day after tomorrow, 21 September, Saturday

    Time Temperature Precipitation Wind Pressure Humidity
    00:00 +19°C° 0 mm 2 mps 622 mmHg 23%
    01:00 +19°C° 0 mm 2 mps 621 mmHg 25%
    02:00 +19°C° 0 mm 3 mps 621 mmHg 27%
    03:00 +19°C° 0 mm 3 mps 621 mmHg 29%
    04:00 +18°C° 0 mm 3 mps 620 mmHg 30%
    05:00 +18°C° 0 mm 3 mps 620 mmHg 32%
    06:00 +18°C° 0 mm 3 mps 620 mmHg 33%
    07:00 +20°C° 0 mm 4 mps 621 mmHg 30%
    08:00 +22°C° 0 mm 5 mps 621 mmHg 26%
    09:00 +26°C° 0 mm 6 mps 622 mmHg 23%
    10:00 +27°C° 0 mm 7 mps 622 mmHg 21%
    11:00 +28°C° 0 mm 8 mps 622 mmHg 19%
    12:00 +29°C° 0 mm 8 mps 622 mmHg 18%
    13:00 +29°C° 0 mm 9 mps 622 mmHg 17%
    14:00 +29°C° 0 mm 9 mps 621 mmHg 16%
    15:00 +29°C° 0 mm 10 mps 621 mmHg 15%
    16:00 +27°C° 0 mm 8 mps 621 mmHg 21%
    17:00 +24°C° 0 mm 6 mps 620 mmHg 26%
    18:00 +22°C° 0 mm 5 mps 620 mmHg 31%
    19:00 +19°C° 0 mm 4 mps 620 mmHg 44%
    20:00 +17°C° 0 mm 4 mps 620 mmHg 57%
    21:00 +13°C° 0 mm 4 mps 620 mmHg 70%
    22:00 +12°C° 0 mm 3 mps 620 mmHg 72%
    23:00 +11°C° 0 mm 3 mps 621 mmHg 74%

    22 September, Sunday

    Time Temperature Precipitation Wind Pressure Humidity
    00:00 +11°C° 0 mm 3 mps 621 mmHg 76%
    01:00 +10°C° 0 mm 3 mps 621 mmHg 76%
    02:00 +10°C° 0 mm 2 mps 621 mmHg 76%
    03:00 +9°C° 0 mm 2 mps 622 mmHg 76%
    04:00 +9°C° 0 mm 2 mps 622 mmHg 78%
    05:00 +9°C° 0 mm 2 mps 622 mmHg 79%
    06:00 +9°C° 0 mm 2 mps 623 mmHg 80%
    07:00 +9°C° 0 mm 3 mps 623 mmHg 74%
    08:00 +10°C° 0 mm 3 mps 624 mmHg 67%
    09:00 +11°C° 0 mm 3 mps 625 mmHg 60%
    10:00 +12°C° 0 mm 3 mps 625 mmHg 55%
    11:00 +14°C° 0 mm 3 mps 625 mmHg 49%
    12:00 +16°C° 0 mm 3 mps 625 mmHg 43%
    13:00 +16°C° 0 mm 3 mps 625 mmHg 41%
    14:00 +17°C° 0 mm 3 mps 624 mmHg 40%
    15:00 +18°C° 0 mm 3 mps 624 mmHg 38%
    16:00 +16°C° 0 mm 3 mps 623 mmHg 41%
    17:00 +14°C° 0 mm 3 mps 623 mmHg 44%
    18:00 +13°C° 0 mm 3 mps 622 mmHg 47%
    19:00 +12°C° 0 mm 3 mps 622 mmHg 49%
    20:00 +11°C° 0 mm 3 mps 622 mmHg 51%
    21:00 +10°C° 0 mm 3 mps 622 mmHg 53%
    22:00 +10°C° 0 mm 2 mps 622 mmHg 53%
    23:00 +10°C° 0 mm 2 mps 622 mmHg 54%

    23 September, Monday

    Time Temperature Precipitation Wind Pressure Humidity
    00:00 +9°C° 0 mm 2 mps 622 mmHg 54%
    01:00 +9°C° 0 mm 2 mps 622 mmHg 55%
    02:00 +9°C° 0 mm 2 mps 622 mmHg 56%
    03:00 +9°C° 0 mm 2 mps 622 mmHg 57%
    04:00 +8°C° 0 mm 2 mps 622 mmHg 59%
    05:00 +9°C° 0 mm 1 mps 622 mmHg 60%
    06:00 +9°C° 0 mm 1 mps 622 mmHg 62%
    07:00 +11°C° 0 mm 1 mps 623 mmHg 56%
    08:00 +13°C° 0 mm 1 mps 624 mmHg 50%
    09:00 +15°C° 0 mm 1 mps 625 mmHg 44%
    10:00 +18°C° 0 mm 1 mps 625 mmHg 40%
    11:00 +18°C° 0 mm 2 mps 625 mmHg 36%
    12:00 +20°C° 0 mm 2 mps 626 mmHg 32%
    13:00 +20°C° 0 mm 2 mps 625 mmHg 32%
    14:00 +20°C° 0 mm 2 mps 625 mmHg 31%
    15:00 +20°C° 0 mm 3 mps 625 mmHg 31%
    16:00 +18°C° 0 mm 3 mps 624 mmHg 38%
    17:00 +17°C° 0 mm 4 mps 624 mmHg 45%
    18:00 +14°C° 0 mm 4 mps 623 mmHg 52%
    19:00 +12°C° 0 mm 4 mps 623 mmHg 60%
    20:00 +11°C° 0 mm 4 mps 623 mmHg 68%
    21:00 +10°C° 0 mm 4 mps 623 mmHg 76%
    22:00 +10°C° 0 mm 4 mps 623 mmHg 78%
    23:00 +10°C° 0 mm 4 mps 623 mmHg 81%

    24 September, Tuesday

    Time Temperature Precipitation Wind Pressure Humidity
    00:00 +10°C° 0 mm 4 mps 623 mmHg 83%
    01:00 +10°C° 0 mm 4 mps 623 mmHg 83%
    02:00 +10°C° 0 mm 4 mps 624 mmHg 83%
    03:00 +10°C° 0 mm 4 mps 624 mmHg 84%
    04:00 +9°C° 0 mm 3 mps 624 mmHg 85%
    05:00 +9°C° 0 mm 3 mps 624 mmHg 86%
    06:00 +9°C° 0 mm 3 mps 624 mmHg 86%
    07:00 +10°C° 0 mm 3 mps 624 mmHg 79%
    08:00 +12°C° 0 mm 3 mps 625 mmHg 72%
    09:00 +14°C° 0 mm 2 mps 625 mmHg 64%
    10:00 +16°C° 0 mm 2 mps 626 mmHg 58%
    11:00 +18°C° 0 mm 2 mps 626 mmHg 51%
    12:00 +19°C° 0 mm 2 mps 626 mmHg 45%
    13:00 +20°C° 0 mm 2 mps 625 mmHg 41%
    14:00 +21°C° 0 mm 2 mps 625 mmHg 37%
    15:00 +21°C° 0 mm 2 mps 625 mmHg 33%
    16:00 +20°C° 0 mm 2 mps 624 mmHg 39%
    17:00 +19°C° 0 mm 1 mps 623 mmHg 45%
    18:00 +18°C° 0 mm 1 mps 623 mmHg 51%
    19:00 +16°C° 0 mm 1 mps 623 mmHg 55%
    20:00 +15°C° 0 mm 1 mps 623 mmHg 59%
    21:00 +14°C° 0 mm 1 mps 623 mmHg 63%
    22:00 +14°C° 0 mm 1 mps 622 mmHg 60%
    23:00 +14°C° 0 mm 1 mps 622 mmHg 57%
    Show more